Total_Precipitation_Accumulation
0.09 0.10 0.22 0.21 0.11 0.09 0.10 0.14 0.19 0.19 0.18 0.19 0.19 0.17 0.13 0.10 0.07 0.06 0.07 0.08 0.10 0.13 0.18 0.25 0.28 0.32 0.39 0.44 0.48 0.49 0.51 0.56 0.70 0.90 1.10 1.14 1.16 1.25 1.49 1.61 1.64 1.36 1.26
0.02 0.05 0.18 0.22 0.16 0.12 0.11 0.13 0.17 0.17 0.18 0.18 0.18 0.19 0.16 0.13 0.10 0.08 0.09 0.11 0.12 0.16 0.21 0.23 0.25 0.26 0.31 0.33 0.38 0.43 0.49 0.63 0.98 1.26 1.44 1.35 1.35 1.45 1.57 1.56 1.62 1.33 1.14
0.02 0.03 0.11 0.19 0.17 0.13 0.13 0.14 0.17 0.17 0.18 0.16 0.16 0.16 0.16 0.14 0.11 0.09 0.10 0.12 0.14 0.17 0.19 0.26 0.26 0.22 0.26 0.31 0.38 0.39 0.49 0.76 1.24 1.70 1.90 1.66 1.28 1.48 1.62 1.60 1.47 1.13 0.92
0.03 0.03 0.04 0.12 0.15 0.14 0.13 0.14 0.17 0.15 0.14 0.13 0.13 0.13 0.14 0.13 0.11 0.10 0.11 0.13 0.15 0.16 0.19 0.25 0.23 0.22 0.23 0.29 0.38 0.45 0.61 0.85 1.24 1.61 1.88 1.37 1.03 1.08 1.28 1.20 1.08 0.90 0.71
0.07 0.04 0.06 0.10 0.12 0.14 0.15 0.15 0.15 0.15 0.14 0.13 0.12 0.13 0.12 0.12 0.12 0.11 0.13 0.14 0.17 0.21 0.22 0.19 0.20 0.23 0.24 0.28 0.39 0.52 0.71 0.92 1.18 1.44 1.31 1.47 1.41 1.08 0.99 0.93 0.95 0.77 0.56
0.11 0.07 0.09 0.13 0.12 0.12 0.13 0.14 0.15 0.14 0.13 0.14 0.13 0.13 0.13 0.13 0.15 0.14 0.13 0.15 0.19 0.24 0.24 0.24 0.25 0.24 0.24 0.25 0.36 0.55 0.75 0.99 1.19 0.92 0.72 1.04 1.08 0.96 0.92 0.90 0.85 0.70 0.52
0.16 0.10 0.10 0.17 0.15 0.14 0.15 0.17 0.17 0.15 0.14 0.14 0.14 0.16 0.17 0.17 0.17 0.16 0.16 0.17 0.19 0.22 0.23 0.25 0.27 0.25 0.26 0.27 0.34 0.53 0.80 1.04 1.07 0.77 0.60 0.80 0.80 0.81 0.91 0.92 0.86 0.72 0.53
0.26 0.17 0.18 0.25 0.25 0.21 0.20 0.22 0.22 0.18 0.16 0.17 0.18 0.20 0.20 0.19 0.20 0.20 0.21 0.21 0.21 0.24 0.25 0.24 0.25 0.25 0.26 0.31 0.40 0.51 0.72 0.81 0.76 0.72 0.64 0.71 0.59 0.79 0.94 0.83 0.76 0.71 0.59
0.52 0.39 0.32 0.30 0.29 0.26 0.28 0.29 0.28 0.24 0.22 0.22 0.23 0.22 0.21 0.20 0.22 0.23 0.27 0.28 0.28 0.29 0.28 0.28 0.28 0.30 0.34 0.38 0.46 0.58 0.74 0.91 0.94 0.92 0.73 0.69 0.60 0.85 1.12 0.92 0.73 0.64 0.63
1.07 0.83 0.61 0.40 0.41 0.34 0.31 0.33 0.33 0.29 0.27 0.27 0.26 0.25 0.27 0.31 0.37 0.40 0.40 0.39 0.40 0.43 0.43 0.45 0.45 0.47 0.52 0.58 0.66 0.78 0.91 0.89 0.91 1.17 0.95 0.67 0.68 0.95 1.21 1.22 1.01 0.82 0.73
1.35 1.16 1.04 0.82 0.56 0.53 0.48 0.42 0.49 0.47 0.47 0.49 0.53 0.51 0.53 0.64 0.74 0.82 0.70 0.69 0.71 0.76 0.78 0.84 0.88 0.89 0.87 0.78 0.88 1.07 1.01 0.95 1.20 1.39 1.08 0.82 0.91 1.23 1.43 1.52 1.36 1.21 1.09
1.40 1.22 1.22 1.15 0.84 0.72 0.66 0.82 1.01 0.93 0.97 0.95 1.08 0.98 1.13 1.20 1.05 0.78 0.86 1.00 1.10 1.32 1.40 1.48 1.55 1.52 1.37 1.17 1.26 1.32 1.06 1.14 1.32 1.20 1.03 0.95 1.05 1.35 1.62 1.74 1.62 1.42 1.31
1.65 1.52 1.21 1.32 1.13 1.04 1.10 1.17 1.28 1.35 1.35 1.33 1.37 1.39 1.56 1.49 1.23 1.09 1.26 1.54 1.70 1.86 1.99 2.16 2.17 1.85 1.88 1.96 1.98 1.79 1.60 1.49 1.54 1.32 0.96 1.06 1.18 1.45 1.72 1.81 1.71 1.60 1.46
1.94 1.82 1.66 1.65 1.60 1.51 1.46 1.36 1.28 1.17 1.18 1.28 1.40 1.47 1.63 1.66 1.66 1.62 1.68 1.77 1.93 2.20 2.48 2.51 2.54 2.45 2.58 2.50 2.29 2.22 2.03 1.72 1.89 1.93 1.39 1.32 1.42 1.71 1.84 1.83 1.74 1.69 1.67
2.62 2.46 2.40 2.43 2.18 1.93 1.75 1.42 1.19 1.08 0.99 1.05 1.16 1.24 1.31 1.56 1.73 1.74 1.58 1.59 1.65 1.90 2.26 2.61 2.66 2.87 2.96 2.74 2.35 2.15 2.18 2.07 2.06 1.93 1.55 1.62 1.81 1.85 1.83 1.78 1.75 1.72 1.72
3.59 3.37 3.16 3.16 2.63 2.28 1.97 1.56 1.33 1.12 1.09 1.02 0.95 1.02 1.20 1.37 1.55 1.50 1.49 1.57 1.66 1.66 1.82 2.22 2.45 2.69 2.66 2.44 2.06 1.93 1.92 1.97 1.86 1.77 1.53 1.57 1.72 1.62 1.62 1.79 1.91 1.91 1.87
4.69 4.28 3.64 3.36 2.98 2.63 2.32 1.84 1.46 1.26 1.06 1.02 0.93 0.93 1.01 1.11 1.26 1.27 1.30 1.29 1.36 1.37 1.40 1.55 1.78 1.97 1.96 1.90 1.86 1.89 1.87 1.80 1.65 1.58 1.61 1.54 1.40 1.47 1.52 1.62 1.74 1.83 1.98
5.50 4.89 4.09 3.38 3.38 3.15 2.76 2.12 1.62 1.31 1.11 0.94 0.85 0.76 0.75 0.79 0.81 0.83 0.86 0.86 0.85 0.83 0.90 1.06 1.18 1.32 1.50 1.65 1.75 1.74 1.74 1.75 1.63 1.57 1.55 1.48 1.46 1.28 1.47 1.56 1.55 1.60 1.82
5.72 5.48 4.77 4.47 4.22 3.55 2.74 2.06 1.60 1.31 1.14 0.96 0.83 0.69 0.66 0.62 0.61 0.65 0.68 0.70 0.57 0.54 0.59 0.62 0.81 0.94 1.11 1.21 1.16 1.28 1.30 1.29 1.25 1.17 1.20 1.09 1.21 1.18 1.25 1.35 1.42 1.40 1.59
4.70 4.57 4.40 4.40 3.89 3.24 2.55 2.02 1.63 1.36 1.13 0.96 0.80 0.71 0.64 0.61 0.57 0.62 0.56 0.53 0.44 0.44 0.51 0.62 0.75 0.77 0.78 0.84 0.79 0.91 0.91 0.83 0.85 0.85 0.77 0.77 0.83 0.81 0.90 1.05 1.09 1.01 1.32
3.15 3.22 3.44 3.56 3.21 2.67 2.19 1.65 1.37 1.26 1.08 0.91 0.76 0.63 0.60 0.55 0.58 0.61 0.51 0.55 0.46 0.43 0.44 0.47 0.56 0.60 0.58 0.57 0.71 0.82 0.70 0.58 0.58 0.54 0.53 0.59 0.64 0.76 0.90 1.04 1.01 1.00 0.96
2.23 2.52 2.81 2.95 2.71 2.17 1.90 1.59 1.41 1.29 1.14 0.99 0.82 0.66 0.52 0.48 0.49 0.48 0.55 0.45 0.42 0.43 0.42 0.43 0.50 0.51 0.47 0.49 0.61 0.74 0.73 0.75 0.70 0.40 0.47 0.56 0.59 0.75 0.83 0.87 0.91 1.00 0.88
1.97 2.09 2.08 2.25 2.30 2.02 1.84 1.68 1.48 1.37 1.19 1.06 0.90 0.69 0.50 0.46 0.47 0.45 0.43 0.43 0.48 0.39 0.45 0.53 0.51 0.49 0.46 0.43 0.45 0.55 0.62 0.63 0.61 0.55 0.49 0.52 0.58 0.74 0.78 0.87 0.84 0.89 0.91
1.37 1.62 1.80 1.98 2.04 1.86 1.71 1.47 1.22 0.99 0.83 0.70 0.65 0.63 0.57 0.50 0.45 0.41 0.35 0.39 0.45 0.42 0.55 0.43 0.45 0.49 0.48 0.40 0.36 0.33 0.34 0.41 0.49 0.62 0.61 0.53 0.56 0.63 0.64 0.61 0.65 0.79 0.83
0.93 1.28 1.63 1.91 2.05 1.81 1.51 1.30 1.19 1.00 0.88 0.78 0.71 0.76 0.65 0.58 0.51 0.44 0.41 0.42 0.40 0.39 0.47 0.47 0.54 0.49 0.49 0.46 0.36 0.31 0.33 0.31 0.31 0.35 0.51 0.58 0.58 0.45 0.37 0.41 0.50 0.66 0.74
0.74 0.96 1.18 1.44 1.66 1.60 1.41 1.26 1.19 1.12 1.03 0.90 0.73 0.66 0.61 0.59 0.57 0.54 0.50 0.51 0.49 0.42 0.40 0.40 0.45 0.49 0.55 0.59 0.48 0.36 0.37 0.34 0.28 0.28 0.27 0.31 0.43 0.38 0.33 0.36 0.43 0.53 0.59